CST,Max TemperatureF,Mean TemperatureF,Min TemperatureF,Max Dew PointF,MeanDew PointF,Min DewpointF,Max Humidity, Mean Humidity, Min Humidity, Max Sea Level PressureIn, Mean Sea Level PressureIn, Min Sea Level PressureIn, Max VisibilityMiles, Mean VisibilityMiles, Min VisibilityMiles, Max Wind SpeedMPH, Mean Wind SpeedMPH, Max Gust SpeedMPH,PrecipitationIn, CloudCover, Events, WindDirDegrees
2012-12-1,64,53,42,54,50,36,93,79,65,30.06,29.96,29.87,10,9,5,18,10,29,0.00,5,,178
2012-12-2,62,56,49,54,52,48,100,89,78,30.02,29.98,29.88,10,3,0,14,6,17,0.00,5,Fog,234
2012-12-3,74,64,53,59,55,47,93,75,57,29.97,29.87,29.75,10,10,7,28,14,38,0.06,4,Rain,203
2012-12-4,58,48,38,39,35,27,83,61,39,30.31,30.19,30.01,10,10,9,17,7,21,T,0,,306
2012-12-5,48,39,30,35,31,24,85,69,53,30.39,30.29,30.14,10,10,10,14,8,16,0.00,0,,100
2012-12-6,51,44,36,42,37,32,92,77,61,30.11,30.00,29.92,10,10,5,13,7,16,0.06,2,Rain,163
2012-12-7,47,44,41,45,42,39,100,93,86,29.93,29.89,29.84,5,2,0,12,7,14,0.04,8,Fog-Rain,31
2012-12-8,42,40,37,40,36,33,100,87,73,30.04,29.97,29.85,10,5,0,15,8,20,0.02,8,Fog-Rain,24
2012-12-9,44,35,26,43,37,19,100,86,72,29.95,29.85,29.79,10,6,1,24,11,30,0.02,8,Rain,252
2012-12-10,30,25,19,21,18,16,81,72,63,30.06,29.97,29.90,10,10,10,23,11,28,0.00,7,,287
2012-12-11,39,29,18,22,18,14,84,66,48,30.20,30.10,30.05,10,10,10,14,7,18,0.00,0,,212
2012-12-12,49,37,25,24,20,18,75,53,31,30.29,30.24,30.20,10,10,10,20,9,23,0.00,0,,179
2012-12-13,53,42,31,26,22,19,56,44,32,30.26,30.19,30.11,10,10,10,21,10,25,0.00,0,,188
2012-12-14,53,43,33,35,27,22,70,54,38,30.18,30.08,29.91,10,10,8,16,9,23,0.11,2,Rain,178
2012-12-15,53,48,42,46,43,35,92,81,70,29.87,29.66,29.55,10,9,3,24,13,32,0.57,8,Rain,200
2012-12-16,49,44,38,43,36,33,85,79,73,29.78,29.72,29.66,10,9,7,16,7,22,0.00,8,,300
2012-12-17,38,33,28,32,30,27,92,84,76,29.78,29.74,29.70,9,6,4,10,4,13,T,6,,299
2012-12-18,55,42,28,37,31,28,92,69,46,29.91,29.74,29.59,10,7,3,25,13,32,0.00,2,,232
2012-12-19,42,36,30,41,33,28,92,84,76,30.01,29.83,29.49,8,5,2,23,9,30,0.13,6,Rain-Thunderstorm,100
2012-12-20,45,34,22,43,31,14,96,85,74,29.98,29.51,29.17,10,3,0,44,23,53,0.36,7,Fog-Rain-Snow-Thunderstorm,327
2012-12-21,29,23,17,14,12,10,74,64,53,30.32,30.23,30.01,10,10,9,28,13,35,0.00,0,,292
2012-12-22,39,26,12,24,16,9,88,68,47,30.30,30.12,29.94,10,10,10,13,5,15,0.00,0,,155
2012-12-23,33,27,20,24,21,17,92,81,69,30.03,29.96,29.93,10,8,4,10,7,13,0.00,0,,18
2012-12-24,26,23,20,25,18,12,92,83,73,30.18,30.01,29.87,10,5,2,21,12,24,0.00,7,,322
2012-12-25,26,23,19,19,16,14,88,81,74,30.35,30.24,30.15,10,10,9,24,14,28,0.00,6,,13
2012-12-26,27,23,19,20,17,14,84,76,68,30.20,30.15,30.08,10,10,10,21,13,25,0.00,7,,345
2012-12-27,31,23,15,22,18,12,92,78,63,30.22,30.14,30.06,10,10,6,15,7,20,0.00,4,,106
2012-12-28,32,28,24,27,25,21,92,84,75,30.04,29.97,29.91,9,7,5,14,5,18,0.00,7,,164
2012-12-29,29,23,16,27,19,13,85,77,68,30.32,30.11,29.93,10,6,2,22,12,26,T,6,Snow,293
2012-12-30,41,29,16,25,19,12,84,68,52,30.39,30.29,30.14,10,10,8,18,10,23,0.00,0,,202
2012-12-31,37,28,19,30,24,13,92,74,56,30.19,30.13,30.09,10,5,0,16,10,21,0.18,7,Fog-Snow,298